Location: Schommer Observatory
(40.5200°N, 74.4500°W)
Time: 06:20:53
(UTC-04:00)

X-37B - Pass Details

Date: 14 October 2017
Orbit: 259 x 286 km, 43.2° (Epoch: 06 October)

Event Time Altitude Azimuth Distance (km) Brightness Sun altitude
Exits shadow 05:07:49 12° 78° (ENE) 931 5.1 -23.5°
Drops below altitude 10° 05:07:57 11° 78° (ENE) 984 5.2 -23.5°
Sets 05:09:58 0° 74° (ENE) 1,834 6.9 -23.1°
